EW2785 Weather Reports


time (UTC)temp
F
wind
direction
speed
knots
gust
knots
rain 1hr
in
rain 24hr
in
rain mn
in
humidity
%
barometer
mb
20260503180013 48 290 1.7 7.8 0.00 0.01 0.00 50 1008.9
20260503174512 47 164 0.9 9.6 0.00 0.01 0.00 50 1008.9
20260503173010 46 243 3.5 10.4 0.00 0.01 0.00 51 1009.0
20260503171511 47 263 2.6 10.4 0.00 0.01 0.00 49 1009.1
20260503150112 48 263 2.6 12.2 0.00 0.01 0.00 53 1009.2
20260503081512 36 325 0.0 0.0 0.00 0.07 0.00 92 1010.4
20260503071511 36 325 0.0 0.0 0.00 0.09 0.00 92 1010.6
20260503060106 35 325 0.0 0.0 0.00 0.10 0.00 91 1011.1
20260503054557 35 325 0.0 0.0 0.00 0.10 0.00 91 1011.2
20260503053057 35 325 0.0 0.0 0.00 0.10 0.00 91 1011.3
20260503051558 35 325 0.0 0.0 0.00 0.10 0.00 90 1011.4
20260503050050 34 325 0.0 0.0 0.00 0.10 0.00 90 1011.5
20260503044550 34 325 0.0 0.0 0.00 0.10 0.00 90 1011.6
20260503043051 34 325 0.0 0.0 0.00 0.10 0.00 89 1011.8
20260503041546 34 325 0.0 0.0 0.00 0.10 0.00 89 1011.8
20260503040044 34 325 0.0 0.0 0.00 0.10 0.10 89 1012.0
20260503034543 34 325 0.0 0.0 0.00 0.10 0.10 88 1012.0
20260503033046 35 325 0.0 0.9 0.00 0.10 0.10 87 1012.0
20260503031539 35 325 0.0 0.0 0.00 0.10 0.10 87 1012.0
20260503030037 36 325 0.0 0.0 0.00 0.10 0.10 87 1012.0
20260503024537 37 325 0.0 0.0 0.00 0.10 0.10 86 1012.0
20260503023033 37 325 0.0 0.0 0.00 0.10 0.10 86 1012.2
20260503021530 38 325 0.0 0.0 0.00 0.10 0.10 86 1012.2
20260503020027 39 325 0.0 0.0 0.00 0.10 0.10 85 1012.3
20260503014538 40 325 0.0 0.0 0.00 0.10 0.10 86 1012.4
20260503013023 40 325 0.0 0.0 0.00 0.10 0.10 86 1012.4
20260503011522 41 325 0.0 1.7 0.00 0.10 0.10 86 1012.5
20260503010021 41 261 0.0 0.0 0.00 0.10 0.10 85 1012.3
20260503004525 42 261 0.0 0.0 0.00 0.10 0.10 85 1012.2
20260503003016 42 261 0.0 0.0 0.00 0.10 0.10 85 1012.0
20260503001513 42 261 0.9 1.7 0.00 0.10 0.10 85 1012.0
20260503000011 43 310 0.0 3.5 0.00 0.10 0.10 85 1011.8
20260502234511 43 277 1.7 3.5 0.00 0.10 0.10 85 1011.7
20260502233012 43 244 0.0 5.2 0.00 0.10 0.10 85 1011.6
20260502231510 44 256 2.6 7.0 0.00 0.10 0.10 84 1011.6
20260502230012 45 262 2.6 7.8 0.00 0.10 0.10 83 1011.4
20260502224508 45 264 1.7 8.7 0.00 0.10 0.10 81 1011.2
20260502223007 46 225 0.0 1.7 0.00 0.10 0.10 78 1010.8
20260502221507 47 251 0.9 7.8 0.00 0.10 0.10 74 1010.5
20260502220007 48 5 1.7 9.6 0.00 0.10 0.10 73 1010.3
20260502214511 49 267 1.7 10.4 0.00 0.10 0.10 71 1010.2
20260502213006 51 254 1.7 8.7 0.00 0.10 0.10 66 1010.1
20260502211510 52 281 0.0 5.2 0.00 0.10 0.10 64 1010.0
20260502210013 53 188 0.9 4.3 0.00 0.10 0.10 59 1009.9
20260502204504 53 194 1.7 7.8 0.00 0.10 0.10 60 1009.8
20260502203002 53 174 0.0 4.3 0.00 0.10 0.10 63 1010.0
20260502201606 52 161 0.9 5.2 0.00 0.10 0.10 67 1010.1
20260502200058 52 131 0.9 5.2 0.00 0.10 0.10 68 1010.2
20260502194606 52 344 0.9 3.5 0.00 0.10 0.10 73 1010.4
20260502193053 50 313 2.6 5.2 0.00 0.10 0.10 73 1010.7
20260502191552 50 113 0.9 3.5 0.00 0.10 0.10 77 1010.7
20260502190048 48 80 0.9 3.5 0.01 0.10 0.10 80 1010.9
20260502184553 48 82 0.9 5.2 0.01 0.10 0.10 81 1011.1
20260502183056 46 76 0.9 4.3 0.01 0.10 0.10 83 1011.3
20260502181545 46 173 0.0 3.5 0.01 0.10 0.10 85 1011.5